Temp
12 11 10 10 10 11 11 10 9 9 9 8 7 7 7 7 7 6 6 6 5 5
12 11 11 11 11 12 11 10 9 9 8 8 7 7 7 7 7 6 6 5 5 5
11 11 12 11 12 12 10 9 8 8 8 7 7 6 6 6 6 5 6 5 4 4
10 11 11 11 11 10 9 8 8 8 7 7 6 6 6 6 5 5 5 4 4 3
10 10 10 10 10 9 8 8 8 7 7 6 6 5 5 5 5 5 4 4 3 3
10 10 9 9 9 8 8 7 7 6 6 5 5 4 4 4 4 4 4 3 3 2
9 9 9 8 8 7 6 6 6 5 5 4 4 3 3 3 3 3 3 3 2 1
8 8 7 7 6 6 6 5 5 4 3 3 3 3 2 2 2 3 3 2 2 1
7 6 6 5 5 5 4 4 4 3 3 2 2 1 0 -0 1 1 2 2 1 1
6 5 4 4 4 4 4 3 3 2 2 2 2 1 -1 -1 -1 0 1 1 1 0
4 4 4 3 4 4 3 3 3 2 2 1 1 0 -1 -2 -1 0 1 1 0 -0
4 5 4 4 3 3 2 2 2 1 1 1 1 -0 -2 -2 -1 -0 0 0 -0 -0
4 4 4 3 2 2 2 2 1 1 1 0 -0 -0 -2 -2 -2 -1 -0 -1 -0 -1
3 2 2 2 1 1 2 1 1 1 1 1 -0 -1 -2 -2 -2 -2 -2 -2 -2 -2
Height
728 737 742 746 754 763 771 778 783 787 790 793 795 797 798 799 800 801 802 802 802 801
726 734 740 748 757 764 771 776 782 786 790 792 794 797 798 798 799 800 801 800 800 799
726 733 740 748 755 763 770 776 780 785 789 792 794 795 796 797 798 799 799 798 798 797
726 732 740 748 754 761 769 774 779 784 788 791 793 794 796 797 797 797 797 797 795 794
727 733 740 750 755 762 767 773 778 782 786 789 792 793 795 796 796 796 795 793 792 791
729 734 743 750 757 763 767 773 777 781 784 787 790 792 794 795 794 793 792 790 789 788
729 736 744 752 758 764 769 774 778 781 784 786 789 791 793 793 792 791 789 788 786 785
732 740 747 755 760 765 770 776 780 782 784 786 787 789 790 791 790 788 786 784 782 780
732 740 748 756 763 768 771 773 780 783 783 784 786 787 788 788 786 785 783 780 778 777
735 741 748 755 763 767 775 778 781 783 783 784 785 785 785 785 783 782 780 778 776 773
741 743 749 757 766 768 776 780 781 782 782 783 784 783 783 782 780 779 777 775 772 769
737 746 755 760 767 774 777 778 779 780 781 782 782 781 780 779 778 776 773 771 768 765
744 752 759 765 770 773 775 777 778 779 780 780 780 779 778 777 775 773 770 767 764 762
751 756 762 766 770 773 775 777 778 778 778 778 777 777 776 776 774 771 768 764 761 758
Wind_Speed
28 27 29 32 32 26 24 19 18 15 12 11 9 6 5 3 1 2 3 5 6 8
30 28 30 29 26 24 21 20 17 15 13 10 8 5 3 2 2 3 5 6 7 9
27 29 30 30 26 24 20 20 18 15 12 9 7 4 2 2 3 4 6 7 8 10
30 31 30 27 27 26 22 20 17 14 11 8 5 3 2 3 5 6 8 9 10 11
29 32 29 27 26 23 22 18 17 14 11 7 4 2 2 5 6 8 10 10 11 12
30 30 29 26 24 22 21 18 15 13 10 7 4 1 3 6 8 10 11 11 12 14
29 29 27 26 23 20 18 16 13 11 9 6 3 1 4 7 9 11 12 13 14 14
29 27 26 23 22 20 17 14 11 10 7 4 2 1 5 8 11 13 14 15 15 15
29 28 26 23 20 19 16 13 10 7 5 2 1 6 6 8 11 13 15 15 15 16
28 27 25 23 20 17 12 10 8 5 3 1 2 8 7 9 11 14 14 15 16 17
27 26 25 21 16 15 10 8 6 4 1 2 4 10 9 10 12 14 15 15 17 18
25 23 20 18 15 12 9 7 4 2 1 3 5 9 10 11 13 14 16 16 17 18
22 21 18 16 13 10 7 5 2 1 3 5 6 6 8 11 12 15 16 17 18 18
21 20 17 14 10 8 5 3 1 3 5 6 6 8 9 11 12 14 17 18 18 19
Wind_Direction
161 165 160 156 157 157 156 160 158 151 148 147 144 143 146 150 179 259 276 277 283 288
162 161 155 152 153 152 153 153 152 149 147 147 145 149 160 196 251 266 271 279 283 283
153 152 150 151 151 149 150 151 148 148 148 146 147 152 174 241 258 270 279 281 285 289
149 146 145 148 143 146 148 148 146 146 146 148 149 162 222 261 272 276 282 283 286 290
144 142 138 140 141 145 143 143 144 144 144 145 150 169 261 276 280 283 288 290 290 293
142 138 138 138 140 142 140 139 139 140 140 140 144 203 283 287 289 290 289 289 290 292
135 134 134 135 136 133 133 133 134 134 132 131 135 271 291 294 293 291 291 291 288 290
131 129 129 129 129 129 128 128 131 129 127 130 118 259 286 295 294 296 294 292 294 295
127 129 128 125 122 126 122 126 129 131 148 132 132 268 292 301 304 299 296 298 301 301
127 124 123 123 127 125 129 128 136 142 126 151 261 278 306 307 301 297 296 298 300 302
120 119 121 124 129 121 132 141 143 134 153 273 281 290 310 309 306 300 298 296 298 302
119 122 124 121 123 132 142 136 141 160 257 285 288 289 310 322 315 307 302 303 305 305
117 120 122 128 133 134 132 135 146 243 273 277 291 304 317 326 317 309 314 314 311 313
116 119 124 125 124 124 126 132 220 268 277 286 293 305 310 319 315 316 316 312 314 311